This is the latest recevied weather packets stored in our database for station/object EA2AFZ-W. If no packets are shown the sender has not sent any weather packets the latest 10 day(s).
| Time | Temp. | Humidity | Pressure | Rain* | Wind** | Luminosity | Snow |
|---|---|---|---|---|---|---|---|
| 1788619513 | 29.44° C | 53% | 1020 hPa | 0 mm | - | - | - |
| 1788617709 | 29.44° C | 53% | 1020 hPa | 0 mm | - | - | - |
| 1788615908 | 28.89° C | 54% | 1020 hPa | 0 mm | - | - | - |
| 1788614165 | 28.33° C | 56% | 1021 hPa | 0 mm | - | - | - |
| 1788612363 | 27.78° C | 60% | 1021 hPa | 0 mm | - | - | - |
| 1788610560 | 27.78° C | 60% | 1022 hPa | 0 mm | - | - | - |
| 1788608757 | 27.22° C | 62% | 1022 hPa | 0 mm | - | - | - |
| 1788606955 | 26.67° C | 63% | 1023 hPa | 0 mm | - | - | - |
| 1788605152 | 25.56° C | 64% | 1023 hPa | 0 mm | - | - | - |
| 1788603349 | 25° C | 62% | 1023 hPa | 0 mm | - | - | - |
| 1788601548 | 25° C | 63% | 1023 hPa | 0 mm | - | - | - |
| 1788599772 | 24.44° C | 68% | 1023 hPa | 0 mm | - | - | - |
| 1788597943 | 21.67° C | 70% | 1023 hPa | 0 mm | - | - | - |
| 1788596140 | 21.67° C | 74% | 1023 hPa | 0 mm | - | - | - |
| 1788594339 | 21.11° C | 77% | 1023 hPa | 0 mm | - | - | - |
| 1788592536 | 20.56° C | 81% | 1023 hPa | 0 mm | - | - | - |
| 1788590734 | 20° C | 76% | 1023 hPa | 0 mm | - | - | - |
| 1788588931 | 19.44° C | 73% | 1023 hPa | 0 mm | - | - | - |
| 1788587129 | 19.44° C | 71% | 1023 hPa | 0 mm | - | - | - |
| 1788585326 | 19.44° C | 72% | 1023 hPa | 0 mm | - | - | - |
| 1788583524 | 19.44° C | 71% | 1023 hPa | 0 mm | - | - | - |
| 1788581721 | 19.44° C | 71% | 1023 hPa | 0 mm | - | - | - |
| 1788579920 | 19.44° C | 72% | 1023 hPa | 0 mm | - | - | - |
| 1788578117 | 19.44° C | 72% | 1023 hPa | 0 mm | - | - | - |
| 1788576314 | 19.44° C | 71% | 1023 hPa | 0 mm | - | - | - |
* Rain latest hour (hover to see other rain measurements)
** Current wind speed in m/s (hover to see current wind gust speed)